QTR205 VHHH-RPLL

Flight info

Callsign QTR205
Flight time 1h 32m
Altitude 39000
Route DALOL V642 NOMAN A461 AVMUP W16 TADEL TADEL5R
Aircraft B77W/H-SDE1E2E3FGHIJ2J3J4J5M1RWXY/LB1D1

Departure

Time 2026-05-08 04:01
Airport Hong Kong International Airport (VHHH)

Arrival

Time 2026-05-08 05:33
Airport Ninoy Aquino International Airport (RPLL)
Time Latitude Longitude Altitude Speed Heading
2026-05-08 03:23 22.31008 113.91870 37 ft 0 kts 251°
2026-05-08 03:50 22.31011 113.91881 37 ft 4 kts 255°
2026-05-08 03:50 22.31015 113.91909 37 ft 4 kts 268°
2026-05-08 03:50 22.31016 113.91932 37 ft 1 kts 264°
2026-05-08 03:50 22.31016 113.91936 37 ft 0 kts 264°
2026-05-08 03:54 22.31019 113.91929 37 ft 2 kts 290°
2026-05-08 03:54 22.31032 113.91922 37 ft 3 kts 344°
2026-05-08 03:55 22.31067 113.91924 37 ft 7 kts 359°
2026-05-08 03:55 22.31132 113.91910 37 ft 12 kts 343°
2026-05-08 03:55 22.31225 113.91877 37 ft 16 kts 342°
2026-05-08 03:55 22.31316 113.91845 37 ft 1 kts 342°
2026-05-08 03:56 22.31336 113.91838 37 ft 6 kts 342°
2026-05-08 03:56 22.31387 113.91820 37 ft 10 kts 342°
2026-05-08 03:56 22.31459 113.91830 36 ft 13 kts 50°
2026-05-08 03:56 22.31502 113.91931 37 ft 17 kts 69°
2026-05-08 03:57 22.31544 113.92059 37 ft 19 kts 70°
2026-05-08 03:57 22.31588 113.92192 35 ft 19 kts 70°
2026-05-08 03:57 22.31633 113.92328 37 ft 19 kts 70°
2026-05-08 03:57 22.31676 113.92466 37 ft 19 kts 73°
2026-05-08 03:58 22.31716 113.92605 37 ft 19 kts 73°
2026-05-08 03:58 22.31760 113.92741 37 ft 19 kts 69°
2026-05-08 03:58 22.31791 113.92826 37 ft 0 kts 68°
2026-05-08 03:58 22.31800 113.92832 37 ft 5 kts 29°
2026-05-08 03:59 22.31836 113.92822 37 ft 6 kts 339°
2026-05-08 03:59 22.31878 113.92804 37 ft 8 kts 338°
2026-05-08 03:59 22.31950 113.92775 38 ft 12 kts 341°
2026-05-08 03:59 22.32023 113.92735 39 ft 12 kts 304°
2026-05-08 04:00 22.32018 113.92676 39 ft 0 kts 250°
2026-05-08 04:01 22.32014 113.92665 39 ft 11 kts 250°
2026-05-08 04:01 22.31902 113.92321 39 ft 106 kts 251°
2026-05-08 04:01 22.31519 113.91162 253 ft 209 kts 251°
2026-05-08 04:01 22.31038 113.89700 2112 ft 203 kts 252°
2026-05-08 04:02 22.30544 113.88157 3133 ft 234 kts 251°
2026-05-08 04:02 22.29971 113.86352 3704 ft 263 kts 251°
2026-05-08 04:02 22.29366 113.84469 4797 ft 272 kts 251°
2026-05-08 04:02 22.28742 113.82525 6004 ft 275 kts 251°
2026-05-08 04:03 22.28107 113.80548 7177 ft 280 kts 251°
2026-05-08 04:03 22.26811 113.76535 8828 ft 289 kts 251°
2026-05-08 04:03 22.26109 113.74508 8980 ft 288 kts 242°
2026-05-08 04:04 22.24807 113.72846 9013 ft 293 kts 217°
2026-05-08 04:04 22.23085 113.71729 8993 ft 293 kts 203°
2026-05-08 04:04 22.21073 113.71342 8995 ft 295 kts 177°
2026-05-08 04:04 22.19081 113.71853 8997 ft 294 kts 158°
2026-05-08 04:05 22.17220 113.72728 8995 ft 295 kts 157°
2026-05-08 04:05 22.15322 113.73616 8995 ft 296 kts 157°
2026-05-08 04:05 22.13448 113.74483 8998 ft 296 kts 157°
2026-05-08 04:05 22.11622 113.75513 8989 ft 293 kts 144°
2026-05-08 04:06 22.10040 113.76887 9011 ft 295 kts 140°
2026-05-08 04:06 22.08477 113.78340 8994 ft 297 kts 140°
2026-05-08 04:06 22.07012 113.79893 8982 ft 294 kts 124°
2026-05-08 04:06 22.06217 113.81911 9221 ft 290 kts 102°
2026-05-08 04:07 22.05818 113.84048 10121 ft 298 kts 102°
2026-05-08 04:07 22.05376 113.86312 10741 ft 321 kts 102°
2026-05-08 04:07 22.04882 113.88805 10983 ft 355 kts 102°
2026-05-08 04:07 22.04350 113.91489 11366 ft 380 kts 103°
2026-05-08 04:08 22.03787 113.94330 12178 ft 391 kts 103°
2026-05-08 04:08 22.03406 113.96252 12753 ft 396 kts 103°
2026-05-08 04:08 22.02631 114.00152 14046 ft 403 kts 103°
2026-05-08 04:08 22.02240 114.02114 14699 ft 406 kts 103°
2026-05-08 04:09 22.01644 114.05113 15650 ft 411 kts 102°
2026-05-08 04:09 22.01038 114.08157 16537 ft 417 kts 102°
2026-05-08 04:09 22.00421 114.11240 17386 ft 422 kts 103°
2026-05-08 04:09 21.99563 114.14254 18159 ft 426 kts 115°
2026-05-08 04:10 21.98170 114.17123 18913 ft 432 kts 120°
2026-05-08 04:10 21.96661 114.19951 19721 ft 436 kts 120°
2026-05-08 04:10 21.95197 114.22799 20483 ft 441 kts 119°
2026-05-08 04:10 21.93745 114.25744 21223 ft 445 kts 118°
2026-05-08 04:11 21.92305 114.28728 21930 ft 450 kts 118°
2026-05-08 04:11 21.90875 114.31706 22595 ft 454 kts 118°
2026-05-08 04:11 21.89408 114.34753 23242 ft 459 kts 118°
2026-05-08 04:11 21.87925 114.37822 23855 ft 463 kts 118°
2026-05-08 04:12 21.86436 114.40892 24446 ft 467 kts 118°
2026-05-08 04:12 21.84923 114.44034 24968 ft 472 kts 116°
2026-05-08 04:12 21.83737 114.47291 25416 ft 477 kts 107°
2026-05-08 04:12 21.82867 114.50777 25901 ft 482 kts 104°
2026-05-08 04:13 21.82075 114.54263 26385 ft 486 kts 103°
2026-05-08 04:13 21.81250 114.57837 26892 ft 490 kts 104°
2026-05-08 04:13 21.80396 114.61368 27381 ft 494 kts 105°
2026-05-08 04:13 21.79491 114.64959 27852 ft 497 kts 105°
2026-05-08 04:14 21.78555 114.68583 28314 ft 501 kts 105°
2026-05-08 04:14 21.77615 114.72195 28759 ft 505 kts 105°
2026-05-08 04:14 21.76671 114.75825 29178 ft 509 kts 105°
2026-05-08 04:14 21.75712 114.79532 29583 ft 512 kts 105°
2026-05-08 04:15 21.74732 114.83210 29954 ft 516 kts 108°
2026-05-08 04:15 21.73240 114.86711 30270 ft 519 kts 124°
2026-05-08 04:15 21.71029 114.89780 30750 ft 518 kts 130°
2026-05-08 04:15 21.68701 114.92744 31320 ft 516 kts 130°
2026-05-08 04:16 21.66467 114.95717 31824 ft 515 kts 128°
2026-05-08 04:16 21.64269 114.98781 32279 ft 516 kts 128°
2026-05-08 04:16 21.62096 115.01867 32773 ft 515 kts 128°
2026-05-08 04:16 21.59949 115.04908 33265 ft 514 kts 128°
2026-05-08 04:17 21.57773 115.07976 33737 ft 514 kts 128°
2026-05-08 04:17 21.55595 115.11037 34231 ft 513 kts 128°
2026-05-08 04:17 21.53437 115.14065 34652 ft 513 kts 128°
2026-05-08 04:17 21.51289 115.17080 34975 ft 515 kts 128°
2026-05-08 04:18 21.49103 115.20154 35324 ft 516 kts 128°
2026-05-08 04:18 21.46937 115.23201 35703 ft 516 kts 127°
2026-05-08 04:18 21.44747 115.26284 36070 ft 517 kts 127°
2026-05-08 04:18 21.42562 115.29357 36410 ft 518 kts 127°
2026-05-08 04:19 21.40363 115.32450 36664 ft 520 kts 127°
2026-05-08 04:19 21.38189 115.35504 37025 ft 519 kts 127°
2026-05-08 04:19 21.35983 115.38601 37522 ft 516 kts 127°
2026-05-08 04:19 21.33823 115.41629 37922 ft 514 kts 127°
2026-05-08 04:20 21.31646 115.44678 38248 ft 514 kts 127°
2026-05-08 04:20 21.29462 115.47739 38474 ft 516 kts 127°
2026-05-08 04:20 21.27296 115.50772 38717 ft 517 kts 126°
2026-05-08 04:20 21.25096 115.53854 38891 ft 521 kts 126°
2026-05-08 04:21 21.20678 115.60031 38955 ft 525 kts 126°
2026-05-08 04:21 21.16228 115.66249 38951 ft 519 kts 126°
2026-05-08 04:22 21.11866 115.72333 38960 ft 515 kts 126°
2026-05-08 04:22 21.07507 115.78406 38963 ft 514 kts 126°
2026-05-08 04:23 21.03183 115.84431 38966 ft 513 kts 126°
2026-05-08 04:23 20.98812 115.90512 38964 ft 514 kts 126°
2026-05-08 04:24 20.94449 115.96575 38967 ft 514 kts 126°
2026-05-08 04:24 20.90082 116.02638 38967 ft 515 kts 126°
2026-05-08 04:25 20.85471 116.08492 38958 ft 516 kts 135°
2026-05-08 04:25 20.79966 116.13419 38972 ft 516 kts 146°
2026-05-08 04:26 20.73945 116.17502 38962 ft 516 kts 148°
2026-05-08 04:26 20.67857 116.21535 38963 ft 515 kts 148°
2026-05-08 04:27 20.61795 116.25599 38963 ft 514 kts 148°
2026-05-08 04:27 20.55718 116.29704 38963 ft 513 kts 147°
2026-05-08 04:28 20.49725 116.33758 38961 ft 513 kts 147°
2026-05-08 04:28 20.43704 116.37823 38970 ft 513 kts 147°
2026-05-08 04:29 20.37637 116.41913 38956 ft 512 kts 147°
2026-05-08 04:29 20.31622 116.45960 38952 ft 512 kts 147°
2026-05-08 04:30 20.25617 116.50002 38957 ft 512 kts 147°
2026-05-08 04:30 20.19575 116.54065 38955 ft 512 kts 147°
2026-05-08 04:31 20.13576 116.58093 38951 ft 512 kts 147°
2026-05-08 04:31 20.07548 116.62140 38954 ft 512 kts 147°
2026-05-08 04:32 20.01600 116.66276 38955 ft 512 kts 142°
2026-05-08 04:32 19.96317 116.71294 38953 ft 509 kts 131°
2026-05-08 04:33 19.91569 116.76867 38945 ft 508 kts 130°
2026-05-08 04:33 19.86823 116.82463 38941 ft 507 kts 131°
2026-05-08 04:34 19.82108 116.87959 38945 ft 505 kts 131°
2026-05-08 04:34 19.77364 116.93452 38944 ft 504 kts 131°
2026-05-08 04:35 19.72625 116.98928 38945 ft 503 kts 131°
2026-05-08 04:35 19.67898 117.04385 38946 ft 502 kts 131°
2026-05-08 04:36 19.63198 117.09814 38941 ft 501 kts 131°
2026-05-08 04:36 19.58477 117.15262 38946 ft 501 kts 131°
2026-05-08 04:37 19.53740 117.20720 38944 ft 501 kts 131°
2026-05-08 04:37 19.49054 117.26114 38941 ft 501 kts 131°
2026-05-08 04:38 19.44307 117.31574 38935 ft 501 kts 131°
2026-05-08 04:38 19.39587 117.36998 38932 ft 500 kts 131°
2026-05-08 04:39 19.34878 117.42405 38934 ft 500 kts 131°
2026-05-08 04:39 19.30164 117.47815 38936 ft 500 kts 131°
2026-05-08 04:40 19.25451 117.53217 38933 ft 500 kts 131°
2026-05-08 04:40 19.20741 117.58610 38940 ft 500 kts 131°
2026-05-08 04:41 19.16032 117.63996 38938 ft 499 kts 131°
2026-05-08 04:41 19.11325 117.69377 38935 ft 499 kts 131°
2026-05-08 04:42 19.06616 117.74758 38937 ft 498 kts 131°
2026-05-08 04:42 19.01885 117.80155 38937 ft 498 kts 131°
2026-05-08 04:43 18.97175 117.85514 38937 ft 498 kts 131°
2026-05-08 04:43 18.92493 117.90836 38930 ft 497 kts 131°
2026-05-08 04:44 18.87788 117.96183 38936 ft 496 kts 131°
2026-05-08 04:44 18.83097 118.01511 38935 ft 496 kts 131°
2026-05-08 04:45 18.78401 118.06838 38915 ft 495 kts 131°
2026-05-08 04:45 18.73714 118.12152 38916 ft 494 kts 131°
2026-05-08 04:46 18.69053 118.17430 38931 ft 493 kts 131°
2026-05-08 04:46 18.64391 118.22706 38928 ft 492 kts 131°
2026-05-08 04:47 18.59705 118.28002 38914 ft 491 kts 131°
2026-05-08 04:47 18.55049 118.33261 38931 ft 491 kts 131°
2026-05-08 04:48 18.50398 118.38511 38933 ft 490 kts 131°
2026-05-08 04:48 18.45738 118.43768 38932 ft 491 kts 131°
2026-05-08 04:49 18.41085 118.49009 38933 ft 491 kts 131°
2026-05-08 04:49 18.36437 118.54243 38932 ft 491 kts 131°
2026-05-08 04:50 18.31758 118.59506 38929 ft 491 kts 131°
2026-05-08 04:50 18.27087 118.64755 38912 ft 491 kts 131°
2026-05-08 04:51 18.22427 118.69988 38917 ft 491 kts 131°
2026-05-08 04:51 18.17774 118.75210 38916 ft 491 kts 131°
2026-05-08 04:52 18.13111 118.80437 38915 ft 491 kts 132°
2026-05-08 04:52 18.08435 118.85675 38929 ft 490 kts 132°
2026-05-08 04:53 18.03749 118.90923 38914 ft 490 kts 132°
2026-05-08 04:53 17.98799 118.95779 38918 ft 491 kts 141°
2026-05-08 04:54 17.93014 118.99677 38929 ft 491 kts 150°
2026-05-08 04:54 17.87031 119.03088 38913 ft 490 kts 150°
2026-05-08 04:55 17.81050 119.06492 38915 ft 489 kts 150°
2026-05-08 04:55 17.75084 119.09923 38919 ft 488 kts 150°
2026-05-08 04:56 17.69143 119.13358 38922 ft 488 kts 150°
2026-05-08 04:56 17.63192 119.16802 38917 ft 487 kts 150°
2026-05-08 04:57 17.57249 119.20237 38922 ft 487 kts 150°
2026-05-08 04:57 17.51333 119.23652 38915 ft 488 kts 150°
2026-05-08 04:58 17.45390 119.27078 38912 ft 488 kts 150°
2026-05-08 04:58 17.39409 119.30526 38933 ft 488 kts 150°
2026-05-08 04:59 17.34485 119.33363 38909 ft 488 kts 150°
2026-05-08 04:59 17.27521 119.37370 38927 ft 488 kts 150°
2026-05-08 05:00 17.22562 119.40221 38917 ft 489 kts 150°
2026-05-08 05:00 17.16619 119.43637 38913 ft 489 kts 150°
2026-05-08 05:01 17.10664 119.47057 38916 ft 489 kts 150°
2026-05-08 05:01 17.04674 119.50493 38913 ft 489 kts 150°
2026-05-08 05:02 16.98731 119.53901 38931 ft 489 kts 150°
2026-05-08 05:02 16.92780 119.57310 38912 ft 489 kts 150°
2026-05-08 05:03 16.86816 119.60725 38926 ft 488 kts 150°
2026-05-08 05:03 16.80863 119.64131 38915 ft 488 kts 151°
2026-05-08 05:04 16.74919 119.67532 38915 ft 488 kts 151°
2026-05-08 05:04 16.68969 119.70930 38911 ft 488 kts 151°
2026-05-08 05:05 16.63003 119.74337 38911 ft 488 kts 151°
2026-05-08 05:05 16.57058 119.77730 38917 ft 488 kts 151°
2026-05-08 05:06 16.51106 119.81122 38919 ft 488 kts 151°
2026-05-08 05:06 16.45132 119.84525 38928 ft 488 kts 151°
2026-05-08 05:07 16.39150 119.87929 38911 ft 489 kts 151°
2026-05-08 05:07 16.33226 119.91300 38915 ft 489 kts 152°
2026-05-08 05:08 16.27236 119.94706 38909 ft 488 kts 152°
2026-05-08 05:08 16.21282 119.98090 38917 ft 488 kts 152°
2026-05-08 05:09 16.18285 119.99792 38695 ft 492 kts 152°
2026-05-08 05:09 16.15275 120.01501 37954 ft 498 kts 152°
2026-05-08 05:09 16.12233 120.03227 37277 ft 496 kts 152°
2026-05-08 05:09 16.09235 120.04927 36569 ft 494 kts 151°
2026-05-08 05:10 16.06205 120.06646 35853 ft 492 kts 151°
2026-05-08 05:10 16.00266 120.10011 34756 ft 484 kts 151°
2026-05-08 05:10 15.97314 120.11682 34180 ft 481 kts 151°
2026-05-08 05:11 15.94381 120.13343 33644 ft 477 kts 151°
2026-05-08 05:11 15.91469 120.14991 33105 ft 473 kts 151°
2026-05-08 05:11 15.88615 120.16607 32590 ft 470 kts 151°
2026-05-08 05:11 15.85726 120.18241 32056 ft 466 kts 151°
2026-05-08 05:12 15.82898 120.19841 31544 ft 463 kts 150°
2026-05-08 05:12 15.80090 120.21429 31032 ft 459 kts 150°
2026-05-08 05:12 15.77280 120.23017 30514 ft 456 kts 150°
2026-05-08 05:12 15.74520 120.24577 30021 ft 452 kts 150°
2026-05-08 05:13 15.71777 120.26127 29506 ft 449 kts 150°
2026-05-08 05:13 15.69047 120.27668 28992 ft 446 kts 150°
2026-05-08 05:13 15.66308 120.29214 28470 ft 443 kts 151°
2026-05-08 05:13 15.63631 120.30728 27960 ft 440 kts 151°
2026-05-08 05:14 15.60936 120.32253 27438 ft 437 kts 151°
2026-05-08 05:14 15.58308 120.33739 26940 ft 434 kts 151°
2026-05-08 05:14 15.55661 120.35234 26438 ft 430 kts 151°
2026-05-08 05:14 15.53032 120.36719 25937 ft 427 kts 151°
2026-05-08 05:15 15.50422 120.38194 25439 ft 424 kts 151°
2026-05-08 05:15 15.47878 120.39634 25157 ft 415 kts 151°
2026-05-08 05:15 15.45362 120.41057 24970 ft 405 kts 151°
2026-05-08 05:15 15.42938 120.42428 24801 ft 395 kts 151°
2026-05-08 05:16 15.40514 120.43712 24526 ft 387 kts 157°
2026-05-08 05:16 15.37967 120.44664 24110 ft 385 kts 162°
2026-05-08 05:16 15.35426 120.45431 23713 ft 383 kts 164°
2026-05-08 05:16 15.32855 120.46167 23292 ft 381 kts 164°
2026-05-08 05:17 15.30298 120.46908 22871 ft 379 kts 163°
2026-05-08 05:17 15.27793 120.47658 22462 ft 378 kts 163°
2026-05-08 05:17 15.25264 120.48437 22044 ft 376 kts 163°
2026-05-08 05:17 15.22810 120.49204 21638 ft 375 kts 162°
2026-05-08 05:18 15.20288 120.50000 21217 ft 373 kts 162°
2026-05-08 05:18 15.17799 120.50789 20790 ft 372 kts 162°
2026-05-08 05:18 15.15350 120.51565 20378 ft 370 kts 162°
2026-05-08 05:18 15.12886 120.52347 19967 ft 369 kts 162°
2026-05-08 05:19 15.10432 120.53125 19562 ft 367 kts 162°
2026-05-08 05:19 15.08024 120.53889 19168 ft 365 kts 162°
2026-05-08 05:19 15.05606 120.54656 18783 ft 363 kts 162°
2026-05-08 05:19 15.03189 120.55421 18394 ft 361 kts 162°
2026-05-08 05:20 15.00781 120.56183 18013 ft 359 kts 162°
2026-05-08 05:20 14.98435 120.56926 17603 ft 349 kts 161°
2026-05-08 05:20 14.96136 120.57653 17108 ft 336 kts 161°
2026-05-08 05:20 14.93948 120.58345 16711 ft 323 kts 161°
2026-05-08 05:21 14.91825 120.59016 16366 ft 323 kts 161°
2026-05-08 05:21 14.89664 120.59699 15988 ft 323 kts 161°
2026-05-08 05:21 14.87531 120.60374 15623 ft 323 kts 161°
2026-05-08 05:21 14.85368 120.61058 15244 ft 324 kts 161°
2026-05-08 05:22 14.83206 120.61742 14855 ft 323 kts 161°
2026-05-08 05:22 14.81073 120.62416 14492 ft 323 kts 161°
2026-05-08 05:22 14.78903 120.63103 14119 ft 324 kts 161°
2026-05-08 05:22 14.76748 120.63784 13751 ft 324 kts 161°
2026-05-08 05:23 14.74615 120.64457 13377 ft 324 kts 161°
2026-05-08 05:23 14.72457 120.65139 13003 ft 323 kts 161°
2026-05-08 05:23 14.70295 120.65822 12628 ft 324 kts 161°
2026-05-08 05:23 14.68160 120.66496 12264 ft 323 kts 161°
2026-05-08 05:24 14.66013 120.67174 11953 ft 321 kts 161°
2026-05-08 05:24 14.63894 120.67842 11599 ft 309 kts 161°
2026-05-08 05:24 14.61873 120.68484 10933 ft 298 kts 160°
2026-05-08 05:24 14.60025 120.69341 10106 ft 293 kts 149°
2026-05-08 05:25 14.58270 120.70413 9246 ft 291 kts 147°
2026-05-08 05:25 14.56543 120.71476 8483 ft 286 kts 148°
2026-05-08 05:25 14.54825 120.72499 7696 ft 282 kts 148°
2026-05-08 05:25 14.53153 120.73488 6963 ft 277 kts 148°
2026-05-08 05:26 14.51522 120.74454 6587 ft 259 kts 148°
2026-05-08 05:26 14.50019 120.75344 6356 ft 239 kts 148°
2026-05-08 05:26 14.48632 120.76168 6021 ft 226 kts 148°
2026-05-08 05:26 14.47288 120.76967 5580 ft 218 kts 148°
2026-05-08 05:27 14.45995 120.77736 5154 ft 213 kts 148°
2026-05-08 05:27 14.44662 120.78529 5037 ft 224 kts 148°
2026-05-08 05:27 14.43316 120.79330 4999 ft 219 kts 148°
2026-05-08 05:27 14.42043 120.80104 4969 ft 207 kts 141°
2026-05-08 05:28 14.41166 120.81204 4818 ft 195 kts 111°
2026-05-08 05:28 14.40795 120.82511 4569 ft 184 kts 111°
2026-05-08 05:28 14.40275 120.83595 4364 ft 161 kts 96°
2026-05-08 05:28 14.40647 120.84684 3736 ft 171 kts 56°
2026-05-08 05:29 14.41326 120.85642 3505 ft 165 kts 54°
2026-05-08 05:29 14.42027 120.86585 3221 ft 165 kts 56°
2026-05-08 05:29 14.42676 120.87554 3078 ft 163 kts 59°
2026-05-08 05:29 14.43308 120.88574 3079 ft 175 kts 60°
2026-05-08 05:30 14.43943 120.89653 3027 ft 176 kts 60°
2026-05-08 05:30 14.44563 120.90743 2821 ft 176 kts 62°
2026-05-08 05:30 14.45170 120.91831 2458 ft 173 kts 62°
2026-05-08 05:30 14.45777 120.92880 2075 ft 169 kts 62°
2026-05-08 05:31 14.46378 120.93923 1990 ft 172 kts 62°
2026-05-08 05:31 14.46991 120.95016 1997 ft 177 kts 62°
2026-05-08 05:31 14.47580 120.96062 1894 ft 165 kts 62°
2026-05-08 05:31 14.48168 120.97055 1437 ft 157 kts 61°
2026-05-08 05:32 14.48727 120.98000 961 ft 149 kts 63°
2026-05-08 05:32 14.49204 120.98909 626 ft 148 kts 65°
2026-05-08 05:32 14.49691 120.99827 267 ft 141 kts 63°
2026-05-08 05:32 14.50157 121.00661 73 ft 127 kts 62°
2026-05-08 05:33 14.50467 121.01235 66 ft 69 kts 60°
2026-05-08 05:33 14.50690 121.01636 71 ft 60 kts 60°
2026-05-08 05:33 14.50885 121.01988 67 ft 52 kts 60°
2026-05-08 05:33 14.51059 121.02239 73 ft 21 kts 40°
2026-05-08 05:34 14.51170 121.02289 75 ft 8 kts 333°
2026-05-08 05:34 14.51171 121.02234 75 ft 9 kts 250°
2026-05-08 05:34 14.51145 121.02172 74 ft 10 kts 245°
2026-05-08 05:34 14.51129 121.02141 74 ft 8 kts 237°
2026-05-08 05:35 14.51078 121.02059 71 ft 15 kts 238°
2026-05-08 05:35 14.51088 121.01966 69 ft 14 kts 311°
2026-05-08 05:35 14.51158 121.01893 72 ft 14 kts 315°
2026-05-08 05:35 14.51228 121.01822 73 ft 14 kts 315°
2026-05-08 05:36 14.51297 121.01752 72 ft 14 kts 315°
2026-05-08 05:36 14.51359 121.01689 68 ft 11 kts 315°
2026-05-08 05:36 14.51412 121.01633 73 ft 11 kts 315°
2026-05-08 05:36 14.51470 121.01573 67 ft 12 kts 315°
2026-05-08 05:37 14.51524 121.01517 73 ft 8 kts 315°
2026-05-08 05:37 14.51568 121.01473 66 ft 9 kts 315°
2026-05-08 05:37 14.51604 121.01435 69 ft 2 kts 315°
2026-05-08 05:37 14.51616 121.01424 74 ft 3 kts 322°
2026-05-08 05:38 14.51637 121.01418 72 ft 4 kts 352°
2026-05-08 05:38 14.51663 121.01427 66 ft 5 kts 34°
2026-05-08 05:38 14.51691 121.01451 66 ft 6 kts 40°
2026-05-08 05:38 14.51697 121.01456 68 ft 1 kts 40°
2026-05-08 05:39 14.51701 121.01461 71 ft 1 kts 44°
2026-05-08 05:39 14.51702 121.01462 67 ft 0 kts 44°
2026-05-08 06:15 14.51701 121.01463 121 ft 0 kts 45°
2026-05-08 06:16 14.51701 121.01462 72 ft 1 kts 42°
2026-05-08 06:16 14.51701 121.01463 71 ft 0 kts 43°